Location: Peterborough
(44.3091°N, 78.3197°W)
Time: 04:37:27
(UTC-05:00)

Explorer 11/Cluster Stage 4 - Pass Details

Date: 05 October 2023
Orbit: 465 x 1228 km, 28.8° (Epoch: 30 November)

Event Time Altitude Azimuth Distance (km) Brightness Sun altitude
Rises 21:33:22 0° 248° (WSW) 3,520 10.5 -29.9°
Reaches altitude 10° 21:36:53 10° 228° (SW) 2,731 9.6 -30.5°
Enters shadow 21:39:51 16° 202° (SSW) 2,439 9.0 -31.0°
